Погода в Ярославском

Россия / Приморский край     44°11′07″N   132°13′30″E
темп.,
°C
ветер,
м/с
пор.,
м/с
влажн.,
%
обл.,
%
осадки,
мм/ч
давл.,
гПа
погр.,
м
10 мая, пн
пн1001:00+8сз3894100 0.4 1005358
04:00+7сз41091100 0.5 1007393
07:00+8сз399093 0.0 1009465
10:00+9сз5782100 0.1 1010835
13:00+9сз4682100 0.2 1011920
16:00+9ссз4788100 0.8 1012672
19:00+8ссз3793100 1.0 1013423
22:00+7сз2694100 1.3 1014360
11 мая, вт
вт1101:00+7сз1191100 0.0 101550
04:00+7с2291100 0.0 101579
07:00+7св239394 0.0 1017166
10:00+9св238578 0.1 1018500
13:00+13с226045 0.1 10181310
16:00+15всв225313 0.2 10171401
19:00+14вюв23643 0.0 1016459
22:00+8ююз61380100 0.0 1019351
12 мая, ср
ср1201:00+7ю61582100 0.0 1018481
04:00+7ююз61684100 0.0 1018655
07:00+7ююз61682100 0.0 1017766
10:00+11ююз101869100 0.0 10151051
13:00+14ююз122067100 0.0 10131200
16:00+11ююз112076100 0.1 10131194
19:00+9ю111991100 4.0 1013810
22:00+9ююз91888100 4.2 1014754
13 мая, чт
чт1301:00+8ююз8179316 0.0 1014562
04:00+8ююз8149379 0.0 1014451
07:00+9ююз8149212 0.0 1014418
10:00+13ююз810760 0.0 1014516
13:00+18ююз79612 0.0 1013792
16:00+18ююз89583 0.0 1011548
19:00+15ююз71370100 0.0 1011392
22:00+12ююз61569100 0.0 1012326
14 мая, пт
пт1401:00+11ююз51472100 0.0 1012320
04:00+10ююз5136966 0.0 1012303
07:00+10ююз61571100 0.0 1012413
10:00+15ю71361100 0.0 1011643
13:00+17ююз91350100 0.0 10091012
16:00+16ююз101567100 0.0 1006739
19:00+12ю101793100 2.3 1007500
22:00+12ю91993100 13.4 1006810